When you browse on this site, cookies collect data to enhance your experience and personalize the content and advertising you see.
Visit our Privacy Policy to learn more. By continuing to use the site, you agree to this use of cookies and data.
  • In Latvia
  • List of Countries
  • For 7 days
  • Water Temperature
  • Weather Map
  • Weather Widgets
  • user-avatar
    Login

    Hourly Weather Tatabanya

    Today, 19 September, Thursday

    Time Temperature Precipitation Wind Pressure Humidity
    00:00 +9°C° 0 mm 1 mps 746 mmHg 55%
    01:00 +9°C° 0 mm 1 mps 746 mmHg 56%
    02:00 +9°C° 0 mm 1 mps 746 mmHg 59%
    03:00 +8°C° 0 mm 1 mps 746 mmHg 61%
    04:00 +8°C° 0 mm 1 mps 746 mmHg 64%
    05:00 +8°C° 0 mm 2 mps 746 mmHg 63%
    06:00 +8°C° 0 mm 2 mps 746 mmHg 63%
    07:00 +9°C° 0 mm 2 mps 746 mmHg 62%
    08:00 +11°C° 0 mm 3 mps 747 mmHg 56%
    09:00 +13°C° 0 mm 4 mps 747 mmHg 49%
    10:00 +15°C° 0 mm 5 mps 747 mmHg 42%
    11:00 +15°C° 0 mm 5 mps 747 mmHg 40%
    12:00 +16°C° 0 mm 5 mps 747 mmHg 38%
    13:00 +17°C° 0 mm 5 mps 747 mmHg 35%
    14:00 +16°C° 0 mm 5 mps 747 mmHg 35%
    15:00 +16°C° 0 mm 5 mps 747 mmHg 35%
    16:00 +16°C° 0 mm 5 mps 746 mmHg 35%
    17:00 +14°C° 0 mm 4 mps 747 mmHg 41%
    18:00 +12°C° 0 mm 4 mps 747 mmHg 46%
    19:00 +10°C° 0 mm 3 mps 747 mmHg 52%
    20:00 +10°C° 0 mm 3 mps 747 mmHg 55%
    21:00 +9°C° 0 mm 3 mps 748 mmHg 59%
    22:00 +8°C° 0 mm 3 mps 748 mmHg 63%
    23:00 +8°C° 0 mm 3 mps 748 mmHg 66%

    Tomorrow, 20 September, Friday

    Time Temperature Precipitation Wind Pressure Humidity
    00:00 +7°C° 0 mm 3 mps 748 mmHg 69%
    01:00 +7°C° 0 mm 2 mps 748 mmHg 72%
    02:00 +6°C° 0 mm 2 mps 748 mmHg 75%
    03:00 +6°C° 0 mm 2 mps 748 mmHg 78%
    04:00 +6°C° 0 mm 2 mps 748 mmHg 81%
    05:00 +6°C° 0 mm 2 mps 748 mmHg 78%
    06:00 +7°C° 0 mm 2 mps 748 mmHg 75%
    07:00 +8°C° 0 mm 2 mps 748 mmHg 72%
    08:00 +10°C° 0 mm 2 mps 749 mmHg 62%
    09:00 +13°C° 0 mm 2 mps 749 mmHg 52%
    10:00 +15°C° 0 mm 2 mps 750 mmHg 42%
    11:00 +16°C° 0 mm 2 mps 749 mmHg 38%
    12:00 +17°C° 0 mm 2 mps 749 mmHg 33%
    13:00 +18°C° 0 mm 2 mps 748 mmHg 28%
    14:00 +18°C° 0 mm 2 mps 748 mmHg 28%
    15:00 +18°C° 0 mm 2 mps 748 mmHg 29%
    16:00 +18°C° 0 mm 2 mps 748 mmHg 29%
    17:00 +16°C° 0 mm 2 mps 748 mmHg 34%
    18:00 +14°C° 0 mm 1 mps 748 mmHg 39%
    19:00 +12°C° 0 mm 1 mps 748 mmHg 44%
    20:00 +11°C° 0 mm 1 mps 748 mmHg 46%
    21:00 +11°C° 0 mm 1 mps 748 mmHg 48%
    22:00 +9°C° 0 mm 0 mps 748 mmHg 50%
    23:00 +9°C° 0 mm 0 mps 748 mmHg 52%

    Day after tomorrow, 21 September, Saturday

    Time Temperature Precipitation Wind Pressure Humidity
    00:00 +9°C° 0 mm 0 mps 748 mmHg 53%
    01:00 +8°C° 0 mm 0 mps 748 mmHg 55%
    02:00 +8°C° 0 mm 0 mps 748 mmHg 55%
    03:00 +9°C° 0 mm 1 mps 748 mmHg 56%
    04:00 +9°C° 0 mm 1 mps 748 mmHg 57%
    05:00 +9°C° 0 mm 1 mps 748 mmHg 55%
    06:00 +10°C° 0 mm 1 mps 748 mmHg 53%
    07:00 +11°C° 0 mm 1 mps 748 mmHg 51%
    08:00 +13°C° 0 mm 2 mps 748 mmHg 46%
    09:00 +15°C° 0 mm 2 mps 748 mmHg 40%
    10:00 +17°C° 0 mm 3 mps 749 mmHg 34%
    11:00 +18°C° 0 mm 3 mps 748 mmHg 32%
    12:00 +19°C° 0 mm 3 mps 748 mmHg 29%
    13:00 +20°C° 0 mm 3 mps 747 mmHg 27%
    14:00 +20°C° 0 mm 3 mps 747 mmHg 27%
    15:00 +20°C° 0 mm 3 mps 746 mmHg 27%
    16:00 +20°C° 0 mm 3 mps 746 mmHg 28%
    17:00 +18°C° 0 mm 3 mps 746 mmHg 31%
    18:00 +16°C° 0 mm 3 mps 745 mmHg 35%
    19:00 +14°C° 0 mm 2 mps 745 mmHg 38%
    20:00 +13°C° 0 mm 2 mps 745 mmHg 40%
    21:00 +13°C° 0 mm 2 mps 745 mmHg 42%
    22:00 +12°C° 0 mm 2 mps 745 mmHg 43%
    23:00 +12°C° 0 mm 2 mps 745 mmHg 44%

    22 September, Sunday

    Time Temperature Precipitation Wind Pressure Humidity
    00:00 +10°C° 0 mm 2 mps 744 mmHg 45%
    01:00 +10°C° 0 mm 2 mps 744 mmHg 47%
    02:00 +9°C° 0 mm 3 mps 744 mmHg 47%
    03:00 +9°C° 0 mm 3 mps 744 mmHg 48%
    04:00 +9°C° 0 mm 3 mps 743 mmHg 49%
    05:00 +9°C° 0 mm 3 mps 743 mmHg 48%
    06:00 +10°C° 0 mm 4 mps 743 mmHg 46%
    07:00 +11°C° 0 mm 4 mps 743 mmHg 45%
    08:00 +13°C° 0 mm 5 mps 743 mmHg 40%
    09:00 +15°C° 0 mm 5 mps 743 mmHg 36%
    10:00 +17°C° 0 mm 6 mps 743 mmHg 31%
    11:00 +20°C° 0 mm 6 mps 742 mmHg 29%
    12:00 +21°C° 0 mm 6 mps 741 mmHg 28%
    13:00 +22°C° 0 mm 6 mps 741 mmHg 26%
    14:00 +22°C° 0 mm 5 mps 740 mmHg 28%
    15:00 +23°C° 0 mm 5 mps 740 mmHg 30%
    16:00 +23°C° 0 mm 5 mps 739 mmHg 31%
    17:00 +22°C° 0 mm 4 mps 739 mmHg 34%
    18:00 +21°C° 0 mm 3 mps 739 mmHg 36%
    19:00 +19°C° 0 mm 3 mps 739 mmHg 38%
    20:00 +19°C° 0 mm 3 mps 739 mmHg 43%
    21:00 +19°C° 0 mm 3 mps 738 mmHg 47%
    22:00 +18°C° 0 mm 3 mps 738 mmHg 51%
    23:00 +18°C° 0 mm 3 mps 738 mmHg 59%

    23 September, Monday

    Time Temperature Precipitation Wind Pressure Humidity
    00:00 +18°C° 0 mm 4 mps 738 mmHg 66%
    01:00 +17°C° 0 mm 4 mps 738 mmHg 73%
    02:00 +17°C° 0 mm 3 mps 737 mmHg 73%
    03:00 +16°C° 0 mm 3 mps 737 mmHg 73%
    04:00 +16°C° 0 mm 3 mps 737 mmHg 73%
    05:00 +16°C° 0 mm 3 mps 737 mmHg 71%
    06:00 +17°C° 0 mm 2 mps 737 mmHg 69%
    07:00 +17°C° 0 mm 2 mps 737 mmHg 68%
    08:00 +18°C° 0 mm 2 mps 737 mmHg 66%
    09:00 +19°C° 0 mm 2 mps 737 mmHg 65%
    10:00 +20°C° 0 mm 1 mps 737 mmHg 63%
    11:00 +20°C° 0 mm 2 mps 737 mmHg 61%
    12:00 +21°C° 0 mm 2 mps 737 mmHg 59%
    13:00 +23°C° 0 mm 2 mps 736 mmHg 56%
    14:00 +21°C° 0 mm 3 mps 736 mmHg 57%
    15:00 +21°C° 0 mm 4 mps 736 mmHg 58%
    16:00 +21°C° 0 mm 5 mps 736 mmHg 59%
    17:00 +19°C° 0 mm 5 mps 736 mmHg 63%
    18:00 +17°C° 0 mm 5 mps 736 mmHg 67%
    19:00 +16°C° 0 mm 5 mps 737 mmHg 71%
    20:00 +15°C° 0.1 mm 6 mps 737 mmHg 75%
    21:00 +15°C° 0.1 mm 6 mps 737 mmHg 79%
    22:00 +14°C° 0.1 mm 7 mps 737 mmHg 83%
    23:00 +14°C° 0.5 mm 6 mps 737 mmHg 84%

    24 September, Tuesday

    Time Temperature Precipitation Wind Pressure Humidity
    00:00 +14°C° 0.5 mm 6 mps 737 mmHg 85%
    01:00 +14°C° 0.5 mm 5 mps 737 mmHg 86%
    02:00 +13°C° 0 mm 5 mps 737 mmHg 87%
    03:00 +13°C° 0 mm 5 mps 737 mmHg 87%
    04:00 +13°C° 0 mm 5 mps 737 mmHg 87%
    05:00 +13°C° 0 mm 6 mps 737 mmHg 84%
    06:00 +13°C° 0 mm 6 mps 737 mmHg 82%
    07:00 +12°C° 0 mm 7 mps 738 mmHg 80%
    08:00 +15°C° 0 mm 7 mps 738 mmHg 73%
    09:00 +16°C° 0 mm 8 mps 738 mmHg 66%
    10:00 +17°C° 0 mm 8 mps 738 mmHg 59%
    11:00 +18°C° 0 mm 8 mps 738 mmHg 55%
    12:00 +20°C° 0 mm 8 mps 738 mmHg 51%
    13:00 +21°C° 0 mm 8 mps 738 mmHg 46%
    14:00 +20°C° 0 mm 7 mps 738 mmHg 47%
    15:00 +20°C° 0 mm 7 mps 738 mmHg 49%
    16:00 +20°C° 0 mm 7 mps 738 mmHg 50%
    17:00 +17°C° 0 mm 6 mps 738 mmHg 55%
    18:00 +17°C° 0 mm 4 mps 738 mmHg 59%
    19:00 +14°C° 0 mm 3 mps 738 mmHg 64%
    20:00 +13°C° 0 mm 3 mps 738 mmHg 67%
    21:00 +13°C° 0 mm 3 mps 739 mmHg 70%
    22:00 +13°C° 0 mm 2 mps 739 mmHg 72%
    23:00 +13°C° 0 mm 2 mps 739 mmHg 74%
    Show more